Regional Weather Roundup
Issued by NWS

Home | Current Version | Previous Version | Graphics & Text | Print | Product List | Glossary On
Versions: 1 2 3 4 5 6 7 8 9 10 11 12 13 14 15 16 17 18 19 20 21 22 23 24 25 26 27 28 29 30 31 32 33 34 35 36 37 38 39 40 41 42 43 44 45 46 47 48 49 50
000
ASUS45 KBOU 220607
RWRCO

WEATHER ROUNDUP FOR COLORADO
NATIONAL WEATHER SERVICE DENVER/BOULDER CO
1200 AM MDT MON MAY 22 2017

NOTE: "FAIR" INDICATES FEW OR NO CLOUDS BELOW 12000 FEET WITH NO
SIGNIFICANT WEATHER AND/OR OBSTRUCTIONS TO VISIBILITY.

COZ001>005-013-030-031-220700-
...NORTHWEST COLORADO...

CITY           SKY/WX    TMP DP  RH WIND       PRES   REMARKS
CRAIG          FAIR      42  37  82 CALM      30.28S
HAYDEN         FAIR      45  36  70 E3        30.28S
MEEKER         FAIR      42  40  92 NE6       30.27F
RABBIT EARS PA CLOUDY    32  30  93 NE5       30.37F WCI  27
STEAMBOAT SPGS FAIR      40  37  89 E5        30.29S
WALDEN           N/A     36  34  93 NE3       30.35S
$$

COZ006>008-011-220700-
...WEST CENTRAL VALLEYS...

CITY           SKY/WX    TMP DP  RH WIND       PRES   REMARKS
GRAND JUNCTION FAIR      54  40  59 N10       30.20F
MONTROSE       CLOUDY    52  41  66 SE10      30.25S
EAGLE          LGT RAIN  45  40  82 SE8       30.30R
RIFLE          CLOUDY    52  43  71 CALM      30.23F
DELTA          DRIZZLE   57  44  61 E9        30.23R
NUCLA          FAIR      48  39  71 SE3       30.27F
$$

COZ017>023-064>068-220700-
...SOUTHWEST COLORADO...

CITY           SKY/WX    TMP DP  RH WIND       PRES   REMARKS
DURANGO        FAIR      51  31  46 N3        30.21S
CORTEZ         MOCLDY    50  39  66 NE3       30.22R
PAGOSA SPRINGS FAIR      45  29  53 CALM      30.25S
TELLURIDE      CLOUDY    38  37  92 SE5       30.35F
WOLF CREEK PAS FAIR      32  23  69 SW7       30.45F WCI  26
$$

COZ009-010-012-014-032>034-037-058>063-220700-
...CENTRAL COLORADO...

CITY           SKY/WX    TMP DP  RH WIND       PRES   REMARKS
ASPEN          CLOUDY    41  39  93 N6        30.28F
BUENA VISTA    MOCLDY    45  36  72 NE6       30.28S
COPPER MTN     SNOW      34  30  86 N3        30.41F VSB 1/2
BERTHOUD PASS  HVY SNOW  23  14  68 NW6       30.41F VSB 1/4 WCI  16
COTTONWOOD PAS CLOUDY    41  34  75 CALM      30.33F
GUNNISON       FAIR      44  38  79 NW5       30.30F
KREMMLING      DRIZZLE   45  41  87 CALM      30.32F
LEADVILLE      FLURRIES  35  30  82 NE6       30.32F WCI  30
MONARCH PASS   FOG       30  30 100 W26       30.50F VSB<1/4 WCI  16
SALIDA         CLOUDY    49  38  63 SE7       30.32S
SUNLIGHT       LGT SNOW  32  30  93 CALM      30.41F VSB 3/4
WILKERSON PASS SNOW      32  30  93 E3        30.40F VSB 1/2
$$

COZ069>075-220700-
...SAN LUIS VALLEY/SANGRE DE CRISTO MOUNTAINS...

CITY           SKY/WX    TMP DP  RH WIND       PRES   REMARKS
ALAMOSA        FAIR      48  33  56 N9        30.22S
DEL NORTE      FAIR      47  31  55 NE5       30.26S
LA VETA PASS   FAIR      34  32  93 NE13      30.45F WCI  25
SAGUACHE       CLOUDY    45  36  70 NW15      30.27R
$$

COZ035-036-038>040-220700-
...NORTHERN COLORADO FRONT RANGE...

CITY           SKY/WX    TMP DP  RH WIND       PRES   REMARKS
DENVER INTL AP RAIN      47  43  86 SW9       30.26F FOG
DMNS CITY PARK   N/A     46  46  98 SW3       30.26F
AURORA         RAIN      46  46  99 NW8       30.29R
FRONT RANGE AP RAIN      46  45  93 W8        30.27F
ERIE MUNI ARPT LGT RAIN  48  46  92 SW3       30.25F
BOULDER MUN AP MOCLDY    46  43  87 SW9       30.24F
CENTENNIAL     LGT RAIN  47  45  93 N14       30.28S
BROOMFIELD     CLOUDY    45  43  93 SW7       30.27F
FORT COLLINS   FAIR      48  44  86 SE5       30.25F
LONGMONT       FAIR      49  45  86 S5        30.26F
$$

COZ041-046-047-076>085-087-088-220700-
...PIKES PEAK/PALMER DIVIDE AND SOUTHERN FOOTHILLS...

CITY           SKY/WX    TMP DP  RH WIND       PRES   REMARKS
COLO. SPRINGS  CLOUDY    50  41  71 NW9       30.27S
A. F. ACADEMY  RAIN      46  39  76 N13       30.27S
SCHRIEVER AFB  LGT RAIN  47  41  78 N20G28    30.25S
CHEYENNE MTN   LGT RAIN  46  39  76 NW13      30.22
ELLICOTT       CLOUDY   N/A N/A N/A NE15      30.23F
FALCON         LGT RAIN  44  41  89 N10G17    30.28F
FORT CARSON    LGT RAIN  48  44  84 N13       30.24F
LIMON          CLOUDY    48  45  89 N7        30.26R
MONUMENT HILL  CLOUDY    41  37  87 NE8       30.31F
CANON CITY     NOT AVBL
WALSENBURG     CLOUDY    50  45  81 N20G32    30.23R
TRINIDAD       CLOUDY    53  42  66 SW5       30.18S
$$

COZ042>045-048>051-090-091-220700-
...NORTHEAST COLORADO...

CITY           SKY/WX    TMP DP  RH WIND       PRES   REMARKS
GREELEY ARPT   CLOUDY    50  46  86 SW3       30.24F
AKRON          CLOUDY    50  46  86 SW8       30.22S
BURLINGTON     LGT RAIN  50  49  96 NE6       30.21F
WRAY           LGT RAIN  52  50  93 SW6       30.20R
YUMA           LGT RAIN  50  41  71 W5        30.21R
STERLING       FAIR      45  45 100 W5        30.20R
HOLYOKE        NOT AVBL
FORT MORGAN    MOCLDY    48  46  92 W5        30.24S
$$

COZ086-089-092>099-220700-
...SOUTHEAST COLORADO...

CITY           SKY/WX    TMP DP  RH WIND       PRES   REMARKS
PUEBLO         TSTM      54  45  71 N16       30.21R
LA JUNTA       FAIR      58  48  69 CALM      30.12F
LAMAR          MOCLDY    51  48  89 NE5       30.13S
SPRINGFIELD      N/A     52  49  89 S8G18     30.13F
$$



USA.gov is the U.S. government's official web portal to all federal, state and local government web resources and services.